Location: Kellogg
(38.0159°N, 90.0546°W)
Time: 06:57:04
(UTC+00:00)

Hubble Space Telescope - Pass Details

Date: 14 August 2024
Orbit: 505 x 509 km, 28.5° (Epoch: 19 September)

Event Time Altitude Azimuth Distance (km) Brightness Sun altitude
Exits shadow 10:40:30 - 227° (SW) 1,884 2.9 -7.2°
Maximum altitude 10:43:57 19° 175° (S) 1,234 2.4 -6.5°
Drops below altitude 10° 10:46:51 10° 128° (SE) 1,717 3.8 -6.0°
Sets 10:49:32 0° 110° (ESE) 2,604 5.1 -5.5°
